Showing default

SAUDISAT 5B, 43833

Orbit data source: Space-Track

SAUDISAT 5B, 43833 is a payload satellite owned by KACST (SA) in SSO that was launched on Fri, 07 Dec 2018 UTC via a CHANG ZHENG 2D launch vehicle from the Jiuquan Satellite Launch Center, China (JSC). Payload-class satellites include a variety of spacecraft equipped with specific instruments for various scientific and technological missions. These include communications satellites like Starlink; space stations such as the ISS; scientific satellites like the Hubble; Earth observation satellites from companies like Planet Labs, Umbra, and HawkEye 360; GPS; miniature CubeSats for education and research; and military/defense satellites.

Loading next visibility...
Identifier
43833, 2018-102C
Orbit
SSO
Last TLE update
8 hours ago
Origin
Manufacturer
KACST
Mission
Operational Civil Technology
Bus & Motor
SAUDISAT, Unknown motor
Mass
425 kg wet, 425 kg dry
Launch date (UTC)
2018-12-07 (6 years ago)
Launch vehicle
CHANG ZHENG 2D
Launch site
Jiuquan Satellite Launch Center, China (JSC)
Object type
Payload
Rocket body
Debris
Shape & HBR
Box, 2 m
Radar Cross Section
2.500 m², Large (>1 m²)

Expand to show TLE details & history

TLE from 8 hours ago
0 SAUDISAT 5B
1 43833U 18102C   25128.91496987  .00006318  00000-0  26943-3 0  9999
2 43833  97.3680 195.7736 0013200 121.1858 239.0674 15.23197526354156
Epoch: 2025-05-08T21:57Z
Definitive object data (Epoch: 2025-05-08T21:57:33.396Z)
Latitude
-0.00013°
Longitude
-0.59416°
Altitude
503.973 km
Speed
7.61 km/s
True Right ascension
13h 03m 05s
True Declination
0° 00' 00"
Sunlit
Object was in full shadow at TLE epoch
Visualization TLE readout
Latitude
82.17701°
Longitude
-110.86732°
Altitude
501.648 km
Speed
7.625 km/s
Apparent Right ascension
02h 53m 16s
Apparent Declination
26° 07' 15"
Sunlit
Object is in daylight
Visualization observer readout
Local Sidereal Time
14:23:40
Azimuth
352.752° N
Elevation
-23.604°
Doppler factor
1
Orbital elements
Apogee altitude
502.233 km
Perigee altitude
484.093 km
Semi-major axis
6,871.3 km
Eccentricity
0.00132
Inclination
97.368°
RAAN
195.7736°
Arg. of periapsis
121.1858°
True anomaly
238.93776°
Mean anomaly
239.0674°
Eccentric anomaly
239.00257°
Mean motion
3.81052 °/min
BSTAR
0.00026943
Orbital period
94.48 mins
Loading maneuver chart data...
Loading SW <> Apogee altitude chart data...
Loading historical data...
Loading historical data...
Loading historical data...
Loading historical data...
Loading historical data...
Loading historical data...
Loading historical data...

SAUDISAT 5B Visibility forecast

Observer location: undefined°, undefined°

Span
Click to sort rows by Start time (UTC) header in descending order
Start Az.
Max El. time (UTC)
Max El. Az.
Max El.
End time (UTC)
End Az.
6 mins2025-05-09 17:25:52.505Z6.084° NNE2025-05-09 17:28:52.505Z325.405° NNW41.185°2025-05-09 17:31:52.505Z203.533° SW
5 mins2025-05-10 04:03:52.505Z131.064° SE2025-05-10 04:05:52.505Z70.111° E32.646°2025-05-10 04:08:52.505Z5.434° NNE
|